Location: Whispering Pines Observatory
(39.4020°N, 104.7430°W)
Time: 19:32:59
(UTC-07:00)

MOS 1 Rocket - Visible Passes

Search period start: 04 March 2015 00:00
Search period end: 14 March 2015 01:00
Orbit: 615 x 834 km, 97.4° (Epoch: 03 March)

Date Brightness Start Highest point End Pass type
(mag) Time Alt. Az. Time Alt. Az. Time Alt. Az.
04 Mar 3.8 19:16:15 30° ENE 19:16:28 30° ENE 19:20:16 10° N visible
04 Mar 5.5 20:55:35 20° W 20:55:35 20° W 20:58:05 10° NW visible
05 Mar 3.2 20:06:14 71° WNW 20:06:14 71° WNW 20:10:19 10° NNW visible
06 Mar 3.8 19:16:52 30° E 19:17:29 31° ENE 19:21:21 10° N visible
06 Mar 5.5 20:56:12 20° W 20:56:12 20° W 20:59:02 10° NW visible
07 Mar 5.1 18:29:02 10° ENE 18:29:14 10° ENE 18:29:42 10° ENE visible
07 Mar 3.2 20:06:51 69° WSW 20:07:01 70° W 20:11:21 10° NNW visible
08 Mar 3.7 20:17:29 29° E 20:18:29 33° ENE 20:22:25 10° N visible
08 Mar 5.5 21:56:49 19° W 21:56:59 19° W 22:00:00 10° NW visible
09 Mar 5.0 19:29:22 10° ENE 19:30:14 11° ENE 19:31:22 10° NE visible
09 Mar 3.3 21:07:27 58° SW 21:08:01 66° W 21:12:23 10° NNW visible
10 Mar 3.7 20:18:05 27° ESE 20:19:29 35° ENE 20:23:30 10° N visible
10 Mar 5.5 21:57:25 18° WSW 21:58:00 18° W 22:00:57 10° NW visible
11 Mar 5.0 19:29:58 10° E 19:31:14 11° ENE 19:32:44 10° NE visible
11 Mar 3.4 21:08:03 48° SSW 21:09:02 63° W 21:13:25 10° NNW visible
12 Mar 3.6 20:18:42 25° ESE 20:20:28 36° ENE 20:24:34 10° N visible
12 Mar 5.6 21:58:02 16° WSW 21:59:02 17° W 22:01:55 10° NW visible
13 Mar 5.0 19:30:38 10° E 19:32:13 12° ENE 19:34:02 10° NE visible
13 Mar 3.5 21:08:39 39° SSW 21:10:02 60° W 21:14:27 10° NNW visible
